Find Starlink 32173

NORAD ID: 60586 Int'l Des: 2024-150 Owner: SPXS Country: US Constellation: starlink operational
LEOCIRCULAR

Live Position

Loading 3D Globe...

About Starlink 32173

Description loading...

Upcoming Passes

Passes for default location (London). Set your location on the main map for personalized predictions.

Altitude History

Loading altitude history...

Two-Line Element Set

1 60586U 24150D 26129.98026258 -.00001821 00000-0 -42792-4 0 9999
2 60586 53.1622 21.7402 0001246 76.5249 283.5892 15.34389850 97434
Epoch: May 9, 2026 • Age: 24 hours

Current Status

Altitude 465.9 km
Velocity 7.64 km/s
Sub-Earth Point 41.69°N, 158.35°W
Launch Date Aug 20, 2024
Age 1.7 years
Type internet

Technical Details

Classification Payload
Mass 730.00 kg
Dry Mass 700.00 kg
Total Mass 730.00 kg
Length 0.30 m
Diameter 4.10 m
Span 29.00 m
Shape Box + pan
Manufacturer SPXS
Bus Type Starlink V2M
Phase Status In Orbit
Owner/State SPXS/US

Most Searched